When you browse on this site, cookies collect data to enhance your experience and personalize the content and advertising you see.
Visit our Privacy Policy to learn more. By continuing to use the site, you agree to this use of cookies and data.
  • In United Kingdom
  • List of Countries
  • For 7 days
  • Water Temperature
  • Satellite Maps
  • Weather Map
  • Weather Widgets
  • user-avatar
    Login

    Hourly Weather Leicester

    Today, 17 November, Saturday

    Time Temperature Precipitation Wind Pressure Humidity
    00:00 +8°C° 0 mm 3 mps 763 mmHg 91%
    01:00 +8°C° 0 mm 3 mps 763 mmHg 91%
    02:00 +8°C° 0 mm 3 mps 763 mmHg 92%
    03:00 +8°C° 0 mm 3 mps 763 mmHg 92%
    04:00 +8°C° 0 mm 3 mps 763 mmHg 92%
    05:00 +8°C° 0 mm 3 mps 763 mmHg 91%
    06:00 +8°C° 0 mm 3 mps 763 mmHg 91%
    07:00 +7°C° 0 mm 3 mps 763 mmHg 90%
    08:00 +7°C° 0 mm 3 mps 763 mmHg 90%
    09:00 +7°C° 0 mm 3 mps 764 mmHg 89%
    10:00 +7°C° 0 mm 4 mps 764 mmHg 84%
    11:00 +8°C° 0 mm 4 mps 764 mmHg 78%
    12:00 +11°C° 0 mm 4 mps 764 mmHg 72%
    13:00 +10°C° 0 mm 4 mps 764 mmHg 73%
    14:00 +10°C° 0 mm 4 mps 764 mmHg 73%
    15:00 +10°C° 0 mm 4 mps 764 mmHg 73%
    16:00 +8°C° 0 mm 4 mps 764 mmHg 76%
    17:00 +7°C° 0 mm 5 mps 764 mmHg 79%
    18:00 +6°C° 0 mm 5 mps 764 mmHg 81%
    19:00 +6°C° 0 mm 5 mps 764 mmHg 82%
    20:00 +6°C° 0 mm 5 mps 764 mmHg 83%
    21:00 +5°C° 0 mm 4 mps 765 mmHg 84%
    22:00 +5°C° 0 mm 4 mps 765 mmHg 84%
    23:00 +5°C° 0 mm 4 mps 765 mmHg 84%

    Tomorrow, 18 November, Sunday

    Time Temperature Precipitation Wind Pressure Humidity
    00:00 +5°C° 0 mm 4 mps 765 mmHg 84%
    01:00 +5°C° 0 mm 4 mps 765 mmHg 85%
    02:00 +5°C° 0 mm 4 mps 765 mmHg 85%
    03:00 +4°C° 0 mm 4 mps 765 mmHg 86%
    04:00 +4°C° 0 mm 4 mps 765 mmHg 86%
    05:00 +4°C° 0 mm 4 mps 765 mmHg 87%
    06:00 +4°C° 0 mm 4 mps 765 mmHg 87%
    07:00 +4°C° 0 mm 4 mps 765 mmHg 85%
    08:00 +5°C° 0 mm 5 mps 765 mmHg 83%
    09:00 +5°C° 0 mm 5 mps 766 mmHg 80%
    10:00 +6°C° 0 mm 5 mps 766 mmHg 74%
    11:00 +7°C° 0 mm 5 mps 766 mmHg 68%
    12:00 +9°C° 0 mm 6 mps 766 mmHg 61%
    13:00 +8°C° 0 mm 5 mps 765 mmHg 61%
    14:00 +8°C° 0 mm 5 mps 765 mmHg 60%
    15:00 +8°C° 0 mm 5 mps 765 mmHg 60%
    16:00 +7°C° 0 mm 5 mps 765 mmHg 61%
    17:00 +6°C° 0 mm 5 mps 765 mmHg 62%
    18:00 +6°C° 0 mm 5 mps 765 mmHg 63%
    19:00 +6°C° 0 mm 5 mps 765 mmHg 63%
    20:00 +5°C° 0 mm 5 mps 765 mmHg 64%
    21:00 +5°C° 0 mm 5 mps 765 mmHg 64%
    22:00 +5°C° 0 mm 5 mps 765 mmHg 69%
    23:00 +5°C° 0 mm 4 mps 764 mmHg 73%

    Day after tomorrow, 19 November, Monday

    Time Temperature Precipitation Wind Pressure Humidity
    00:00 +5°C° 0 mm 4 mps 764 mmHg 77%
    01:00 +5°C° 0 mm 4 mps 764 mmHg 81%
    02:00 +5°C° 0 mm 4 mps 764 mmHg 86%
    03:00 +5°C° 0 mm 4 mps 763 mmHg 90%
    04:00 +5°C° 0 mm 5 mps 763 mmHg 86%
    05:00 +5°C° 0 mm 5 mps 763 mmHg 83%
    06:00 +5°C° 0 mm 5 mps 763 mmHg 79%
    07:00 +6°C° 0 mm 5 mps 763 mmHg 78%
    08:00 +6°C° 0 mm 5 mps 763 mmHg 77%
    09:00 +6°C° 0 mm 5 mps 763 mmHg 76%
    10:00 +6°C° 0 mm 5 mps 763 mmHg 75%
    11:00 +7°C° 0 mm 5 mps 762 mmHg 74%
    12:00 +7°C° 0 mm 5 mps 762 mmHg 72%
    13:00 +7°C° 0 mm 5 mps 762 mmHg 73%
    14:00 +7°C° 0 mm 5 mps 761 mmHg 74%
    15:00 +7°C° 0 mm 5 mps 761 mmHg 74%
    16:00 +6°C° 0 mm 5 mps 761 mmHg 75%
    17:00 +6°C° 0 mm 5 mps 760 mmHg 76%
    18:00 +5°C° 0 mm 6 mps 760 mmHg 77%
    19:00 +4°C° 0 mm 6 mps 760 mmHg 76%
    20:00 +4°C° 0 mm 6 mps 760 mmHg 76%
    21:00 +4°C° 0 mm 6 mps 760 mmHg 75%
    22:00 +4°C° 0.1 mm 6 mps 759 mmHg 75%
    23:00 +4°C° 0.1 mm 6 mps 759 mmHg 76%

    20 November, Tuesday

    Time Temperature Precipitation Wind Pressure Humidity
    00:00 +5°C° 0.1 mm 5 mps 758 mmHg 76%
    01:00 +4°C° 0.2 mm 6 mps 758 mmHg 77%
    02:00 +4°C° 0.2 mm 6 mps 757 mmHg 77%
    03:00 +4°C° 0.2 mm 6 mps 757 mmHg 78%
    04:00 +4°C° 0.3 mm 6 mps 757 mmHg 78%
    05:00 +4°C° 0.3 mm 6 mps 756 mmHg 79%
    06:00 +5°C° 0.3 mm 5 mps 756 mmHg 80%
    07:00 +5°C° 0.2 mm 5 mps 756 mmHg 79%
    08:00 +5°C° 0.2 mm 5 mps 756 mmHg 78%
    09:00 +5°C° 0.2 mm 5 mps 756 mmHg 77%
    10:00 +5°C° 0.1 mm 5 mps 755 mmHg 74%
    11:00 +5°C° 0.1 mm 6 mps 755 mmHg 70%
    12:00 +5°C° 0.1 mm 6 mps 755 mmHg 66%
    13:00 +5°C° 0.1 mm 6 mps 754 mmHg 67%
    14:00 +5°C° 0.1 mm 6 mps 754 mmHg 68%
    15:00 +6°C° 0.1 mm 5 mps 753 mmHg 68%
    16:00 +5°C° 0.2 mm 5 mps 753 mmHg 72%
    17:00 +5°C° 0.2 mm 5 mps 753 mmHg 76%
    18:00 +3°C° 0.2 mm 5 mps 752 mmHg 80%
    19:00 +3°C° 0.4 mm 5 mps 752 mmHg 81%
    20:00 +4°C° 0.4 mm 4 mps 752 mmHg 82%
    21:00 +4°C° 0.4 mm 4 mps 752 mmHg 82%
    22:00 +4°C° 0.2 mm 4 mps 752 mmHg 83%
    23:00 +4°C° 0.2 mm 3 mps 752 mmHg 85%

    21 November, Wednesday

    Time Temperature Precipitation Wind Pressure Humidity
    00:00 +4°C° 0.2 mm 3 mps 752 mmHg 86%
    01:00 +4°C° 0.6 mm 3 mps 752 mmHg 87%
    02:00 +4°C° 0.6 mm 3 mps 752 mmHg 88%
    03:00 +4°C° 0.6 mm 3 mps 752 mmHg 89%
    04:00 +4°C° 0.5 mm 3 mps 751 mmHg 89%
    05:00 +4°C° 0.5 mm 3 mps 751 mmHg 90%
    06:00 +4°C° 0.5 mm 3 mps 751 mmHg 91%
    07:00 +4°C° 0.6 mm 3 mps 751 mmHg 91%
    08:00 +4°C° 0.6 mm 3 mps 751 mmHg 91%
    09:00 +4°C° 0.6 mm 4 mps 752 mmHg 91%
    10:00 +5°C° 0.7 mm 4 mps 751 mmHg 90%
    11:00 +5°C° 0.7 mm 4 mps 751 mmHg 89%
    12:00 +5°C° 0.7 mm 4 mps 751 mmHg 89%
    13:00 +5°C° 0.6 mm 4 mps 751 mmHg 89%
    14:00 +5°C° 0.6 mm 4 mps 750 mmHg 89%
    15:00 +5°C° 0.6 mm 4 mps 750 mmHg 89%
    16:00 +5°C° 0.6 mm 4 mps 750 mmHg 89%
    17:00 +5°C° 0.6 mm 4 mps 750 mmHg 90%
    18:00 +5°C° 0.6 mm 4 mps 750 mmHg 90%
    19:00 +5°C° 0.5 mm 3 mps 750 mmHg 90%
    20:00 +4°C° 0.5 mm 3 mps 750 mmHg 90%
    21:00 +4°C° 0.5 mm 3 mps 750 mmHg 90%
    22:00 +5°C° 0.3 mm 2 mps 750 mmHg 91%
    23:00 +5°C° 0.3 mm 2 mps 750 mmHg 91%

    22 November, Thursday

    Time Temperature Precipitation Wind Pressure Humidity
    00:00 +5°C° 0.3 mm 2 mps 750 mmHg 92%
    01:00 +5°C° 0.2 mm 2 mps 750 mmHg 92%
    02:00 +5°C° 0.2 mm 1 mps 750 mmHg 93%
    03:00 +5°C° 0.2 mm 1 mps 749 mmHg 93%
    04:00 +4°C° 0.2 mm 2 mps 750 mmHg 93%
    05:00 +4°C° 0.2 mm 2 mps 750 mmHg 93%
    06:00 +3°C° 0.2 mm 3 mps 750 mmHg 93%
    07:00 +3°C° 0.3 mm 3 mps 750 mmHg 92%
    08:00 +3°C° 0.3 mm 4 mps 751 mmHg 90%
    09:00 +3°C° 0.3 mm 5 mps 752 mmHg 89%
    10:00 +3°C° 0.4 mm 5 mps 752 mmHg 86%
    11:00 +4°C° 0.4 mm 6 mps 753 mmHg 83%
    12:00 +5°C° 0.4 mm 6 mps 753 mmHg 80%
    13:00 +5°C° 0.1 mm 6 mps 753 mmHg 80%
    14:00 +5°C° 0.1 mm 6 mps 754 mmHg 79%
    15:00 +5°C° 0.1 mm 6 mps 754 mmHg 79%
    16:00 +4°C° 0 mm 6 mps 754 mmHg 81%
    17:00 +5°C° 0 mm 5 mps 755 mmHg 83%
    18:00 +3°C° 0 mm 5 mps 755 mmHg 85%
    19:00 +3°C° 0 mm 5 mps 756 mmHg 85%
    20:00 +3°C° 0 mm 5 mps 756 mmHg 86%
    21:00 +3°C° 0 mm 5 mps 757 mmHg 87%
    22:00 +4°C° 0 mm 4 mps 757 mmHg 88%
    23:00 +3°C° 0 mm 4 mps 757 mmHg 89%
    Show more